,,,PA_Meas_PMT16A,,PR_Meas_QMR101_102,,RH_Meas_QMH101,,SR_Meas_QMS101,,TA_Meas_QMH101,,GenWind,,GenWind,
date,time,status,PA,status,PR,status,RH,status,SR,status,TA,status,DirAvg,status,SpdAvg,
2009-08-27, 00:00:05,VALID,1000.69,VALID,0,VALID,90.3881,VALID,0,VALID,23.6427,VALID,145,VALID,0.522266,
2009-08-27, 00:01:05,VALID,1000.69,VALID,0,VALID,90.2584,VALID,0,VALID,23.6835,VALID,125,VALID,0.460547,
2009-08-27, 00:02:05,VALID,1000.69,VALID,0,VALID,90.1211,VALID,0,VALID,23.6817,VALID,124,VALID,0.204688,
2009-08-27, 00:03:05,VALID,1000.69,VALID,0,VALID,90.0906,VALID,0,VALID,23.7012,VALID,124,VALID,0.205078,
2009-08-27, 00:04:05,VALID,1000.68,VALID,0,VALID,90.0677,VALID,0,VALID,23.7012,VALID,124,VALID,0.0761719,
2009-08-27, 00:05:05,VALID,1000.65,VALID,0,VALID,90.0829,VALID,0,VALID,23.6817,VALID,124,VALID,0,
2009-08-27, 00:06:05,VALID,1000.65,VALID,0,VALID,90.1287,VALID,0,VALID,23.6817,VALID,124,VALID,0,
2009-08-27, 00:07:05,VALID,1000.61,VALID,0,VALID,90.1897,VALID,0,VALID,23.6622,VALID,124,VALID,0,
2009-08-27, 00:08:05,VALID,1000.61,VALID,0,VALID,90.1974,VALID,0,VALID,23.664,VALID,124,VALID,0.0789063,
2009-08-27, 00:09:05,VALID,1000.61,VALID,0,VALID,90.1974,VALID,0,VALID,23.6232,VALID,124,VALID,0,
2009-08-27, 00:10:04,VALID,1000.55,VALID,0,VALID,90.1897,VALID,0,VALID,23.6445,VALID,124,VALID,0.189063,
2009-08-27, 00:11:04,VALID,1000.54,VALID,0,VALID,90.2279,VALID,0,VALID,23.6445,VALID,124,VALID,0.127344,
2009-08-27, 00:12:04,VALID,1000.54,VALID,0,VALID,90.5178,VALID,0,VALID,23.664,VALID,124,VALID,0.182031,
2009-08-27, 00:13:04,VALID,1000.52,VALID,0,VALID,90.3805,VALID,0,VALID,23.6622,VALID,124,VALID,0.382422,
2009-08-27, 00:14:04,VALID,1000.49,VALID,0,VALID,90.3805,VALID,0,VALID,23.664,VALID,124,VALID,0.472266,
2009-08-27, 00:15:04,VALID,1000.47,VALID,0,VALID,90.35,VALID,0,VALID,23.6835,VALID,125,VALID,0.412891,
2009-08-27, 00:16:04,VALID,1000.45,VALID,0,VALID,89.9303,VALID,0,VALID,23.664,VALID,124,VALID,0.609766,
2009-08-27, 00:17:04,VALID,1000.45,VALID,0,VALID,89.8311,VALID,0,VALID,23.6622,VALID,155,VALID,0.695313,
2009-08-27, 00:18:04,VALID,1000.44,VALID,0,VALID,89.4802,VALID,0,VALID,23.7012,VALID,164,VALID,0.698828,
2009-08-27, 00:19:04,VALID,1000.41,VALID,0,VALID,89.2437,VALID,0,VALID,23.7402,VALID,164,VALID,0.639844,
2009-08-27, 00:20:04,VALID,1000.38,VALID,0,VALID,88.8546,VALID,0,VALID,23.7811,VALID,161,VALID,0.682422,
2009-08-27, 00:21:04,VALID,1000.42,VALID,0,VALID,88.412,VALID,0,VALID,23.8183,VALID,141,VALID,0.633203,
2009-08-27, 00:22:04,VALID,1000.4,VALID,0,VALID,87.8856,VALID,0,VALID,23.8573,VALID,141,VALID,0.695313,
2009-08-27, 00:23:04,VALID,1000.38,VALID,0,VALID,87.6567,VALID,0,VALID,23.8963,VALID,141,VALID,0.856641,
2009-08-27, 00:24:04,VALID,1000.41,VALID,0,VALID,87.4202,VALID,0,VALID,23.9744,VALID,141,VALID,0.957031,
2009-08-27, 00:25:04,VALID,1000.44,VALID,0,VALID,87.2752,VALID,0,VALID,24.0153,VALID,141,VALID,0.873047,
2009-08-27, 00:26:04,VALID,1000.41,VALID,0,VALID,87.1455,VALID,0,VALID,24.0329,VALID,144,VALID,0.957031,
2009-08-27, 00:27:04,VALID,1000.36,VALID,0,VALID,87.2676,VALID,0,VALID,24.0543,VALID,145,VALID,0.782812,
2009-08-27, 00:28:04,VALID,1000.39,VALID,0,VALID,87.321,VALID,0,VALID,24.0543,VALID,145,VALID,0.721094,
2009-08-27, 00:29:04,VALID,1000.39,VALID,0,VALID,87.2294,VALID,0,VALID,24.0543,VALID,153,VALID,1.01172,
2009-08-27, 00:30:04,VALID,1000.39,VALID,0,VALID,87.2218,VALID,0,VALID,24.0543,VALID,157,VALID,0.830859,
2009-08-27, 00:31:04,VALID,1000.36,VALID,0,VALID,87.1379,VALID,0,VALID,24.0543,VALID,162,VALID,0.783594,
2009-08-27, 00:32:04,VALID,1000.36,VALID,0,VALID,86.7717,VALID,0,VALID,24.0329,VALID,154,VALID,0.895312,
2009-08-27, 00:33:04,VALID,1000.34,VALID,0,VALID,86.7488,VALID,0,VALID,24.0738,VALID,149,VALID,0.678516,
2009-08-27, 00:34:04,VALID,1000.36,VALID,0,VALID,87.0234,VALID,0,VALID,24.0933,VALID,149,VALID,0.567969,
2009-08-27, 00:35:04,VALID,1000.36,VALID,0,VALID,86.9853,VALID,0,VALID,24.0933,VALID,140,VALID,0.66875,
2009-08-27, 00:36:04,VALID,1000.38,VALID,0,VALID,87.2676,VALID,0,VALID,24.0525,VALID,139,VALID,0.594531,
2009-08-27, 00:37:04,VALID,1000.38,VALID,0,VALID,87.3286,VALID,0,VALID,24.0543,VALID,134,VALID,0.598047,
2009-08-27, 00:38:04,VALID,1000.37,VALID,0,VALID,87.4507,VALID,0,VALID,24.0543,VALID,121,VALID,0.869141,
2009-08-27, 00:39:04,VALID,1000.39,VALID,0,VALID,87.7101,VALID,0,VALID,24.0348,VALID,121,VALID,0.694141,
2009-08-27, 00:40:04,VALID,1000.41,VALID,0,VALID,87.8246,VALID,0,VALID,24.0348,VALID,121,VALID,0.546484,
2009-08-27, 00:41:04,VALID,1000.35,VALID,0,VALID,88.0611,VALID,0,VALID,24.0153,VALID,121,VALID,0.505078,
2009-08-27, 00:42:04,VALID,1000.35,VALID,0,VALID,88.3434,VALID,0,VALID,23.9726,VALID,121,VALID,0.226172,
2009-08-27, 00:43:04,VALID,1000.34,VALID,0,VALID,88.5341,VALID,0,VALID,23.9939,VALID,121,VALID,0.139062,
2009-08-27, 00:44:04,VALID,1000.36,VALID,0,VALID,88.7249,VALID,0,VALID,23.9549,VALID,121,VALID,0.227344,
2009-08-27, 00:45:04,VALID,1000.33,VALID,0,VALID,88.908,VALID,0,VALID,23.9354,VALID,121,VALID,0.353516,
2009-08-27, 00:46:04,VALID,1000.33,VALID,0,VALID,89.0606,VALID,0,VALID,23.9159,VALID,121,VALID,0.478516,
2009-08-27, 00:47:04,VALID,1000.34,VALID,0,VALID,89.2132,VALID,0,VALID,23.8963,VALID,83,VALID,0.427344,
2009-08-27, 00:48:04,VALID,1000.35,VALID,0,VALID,89.3505,VALID,0,VALID,23.8573,VALID,83,VALID,0.355078,
2009-08-27, 00:49:04,VALID,1000.33,VALID,0,VALID,89.4649,VALID,0,VALID,23.8378,VALID,83,VALID,0.383203,
2009-08-27, 00:50:04,VALID,1000.34,VALID,0,VALID,89.6251,VALID,0.112286,VALID,23.8378,VALID,83,VALID,0.383203,
2009-08-27, 00:51:04,VALID,1000.33,VALID,0,VALID,89.7625,VALID,0,VALID,23.8378,VALID,83,VALID,0.137109,
2009-08-27, 00:52:04,VALID,1000.32,VALID,0,VALID,89.8617,VALID,0.112286,VALID,23.797,VALID,83,VALID,0,
2009-08-27, 00:53:04,VALID,1000.33,VALID,0,VALID,89.9761,VALID,0,VALID,23.7775,VALID,83,VALID,0,
2009-08-27, 00:54:04,VALID,1000.3,VALID,0,VALID,90.06,VALID,0,VALID,23.7597,VALID,83,VALID,0,
2009-08-27, 00:55:04,VALID,1000.31,VALID,0,VALID,90.3118,VALID,0,VALID,23.7384,VALID,83,VALID,0,
2009-08-27, 00:56:04,VALID,1000.31,VALID,0,VALID,90.4568,VALID,0,VALID,23.7189,VALID,83,VALID,0.00429688,
2009-08-27, 00:57:04,VALID,1000.31,VALID,0,VALID,90.4491,VALID,0,VALID,23.7012,VALID,83,VALID,0.207031,
2009-08-27, 00:58:04,VALID,1000.34,VALID,0,VALID,90.6246,VALID,0,VALID,23.6604,VALID,83,VALID,0.217578,
2009-08-27, 00:59:04,VALID,1000.33,VALID,0,VALID,90.5636,VALID,0,VALID,23.6622,VALID,83,VALID,0.211328,
2009-08-27, 01:00:04,VALID,1000.32,VALID,0,VALID,90.7085,VALID,0,VALID,23.6427,VALID,83,VALID,0.201172,
2009-08-27, 01:01:04,VALID,1000.35,VALID,0,VALID,90.8611,VALID,0,VALID,23.6427,VALID,83,VALID,0.301172,
2009-08-27, 01:02:04,VALID,1000.34,VALID,0,VALID,90.9832,VALID,0,VALID,23.6409,VALID,83,VALID,0.244922,
2009-08-27, 01:03:04,VALID,1000.31,VALID,0,VALID,91.0061,VALID,0,VALID,23.6817,VALID,83,VALID,0.140234,
2009-08-27, 01:04:04,VALID,1000.32,VALID,0,VALID,90.9985,VALID,0,VALID,23.6604,VALID,83,VALID,0.126953,
2009-08-27, 01:05:04,VALID,1000.3,VALID,0,VALID,90.9832,VALID,0,VALID,23.6817,VALID,83,VALID,0,
2009-08-27, 01:06:04,VALID,1000.31,VALID,0,VALID,90.9527,VALID,0,VALID,23.6622,VALID,83,VALID,0,
2009-08-27, 01:07:04,VALID,1000.32,VALID,0,VALID,91.0366,VALID,0,VALID,23.6409,VALID,83,VALID,0,
2009-08-27, 01:08:04,VALID,1000.29,VALID,0,VALID,91.1053,VALID,0,VALID,23.6019,VALID,83,VALID,0,
2009-08-27, 01:09:04,VALID,1000.29,VALID,0,VALID,91.1968,VALID,0,VALID,23.6019,VALID,83,VALID,0.216406,
2009-08-27, 01:10:04,VALID,1000.26,VALID,0,VALID,91.3189,VALID,0,VALID,23.6232,VALID,83,VALID,0.314453,
2009-08-27, 01:11:04,VALID,1000.27,VALID,0,VALID,91.4028,VALID,0,VALID,23.6036,VALID,83,VALID,0.265234,
2009-08-27, 01:12:04,VALID,1000.29,VALID,0,VALID,91.4257,VALID,0,VALID,23.5841,VALID,83,VALID,0.205469,
2009-08-27, 01:13:04,VALID,1000.24,VALID,0,VALID,91.4257,VALID,0,VALID,23.5664,VALID,83,VALID,0.217969,
2009-08-27, 01:14:04,VALID,1000.26,VALID,0,VALID,91.4181,VALID,0,VALID,23.5256,VALID,83,VALID,0.0140625,
2009-08-27, 01:15:04,VALID,1000.24,VALID,0,VALID,91.4639,VALID,0,VALID,23.5256,VALID,83,VALID,0.0636719,
2009-08-27, 01:16:04,VALID,1000.21,VALID,0,VALID,91.5554,VALID,0,VALID,23.5469,VALID,83,VALID,0.129297,
2009-08-27, 01:17:04,VALID,1000.2,VALID,0,VALID,91.5097,VALID,0,VALID,23.5256,VALID,83,VALID,0.00664063,
2009-08-27, 01:18:04,VALID,1000.2,VALID,0,VALID,91.4868,VALID,0,VALID,23.5469,VALID,83,VALID,0.302734,
2009-08-27, 01:19:04,VALID,1000.16,VALID,0,VALID,91.5402,VALID,0,VALID,23.5061,VALID,83,VALID,0.378906,
2009-08-27, 01:20:04,VALID,1000.15,VALID,0,VALID,91.7614,VALID,0,VALID,23.5274,VALID,101,VALID,0.686328,
2009-08-27, 01:21:04,VALID,1000.11,VALID,0,VALID,91.7843,VALID,0,VALID,23.5664,VALID,105,VALID,0.567969,
2009-08-27, 01:22:04,VALID,1000.1,VALID,0,VALID,91.9522,VALID,0,VALID,23.6036,VALID,121,VALID,0.838281,
2009-08-27, 01:23:04,VALID,1000.12,VALID,0,VALID,91.7843,VALID,0,VALID,23.6427,VALID,142,VALID,0.898438,
2009-08-27, 01:24:04,VALID,1000.07,VALID,0,VALID,91.5631,VALID,0,VALID,23.6622,VALID,150,VALID,0.864453,
2009-08-27, 01:25:04,VALID,1000.06,VALID,0,VALID,91.1053,VALID,0,VALID,23.6445,VALID,164,VALID,1.10859,
2009-08-27, 01:26:04,VALID,1000.05,VALID,0,VALID,90.9451,VALID,0,VALID,23.6835,VALID,164,VALID,1.05313,
2009-08-27, 01:27:04,VALID,1000.06,VALID,0,VALID,90.7085,VALID,0,VALID,23.6817,VALID,164,VALID,0.839063,
2009-08-27, 01:28:04,VALID,1000.06,VALID,0,VALID,90.5407,VALID,0,VALID,23.7616,VALID,164,VALID,0.686719,
2009-08-27, 01:29:04,VALID,1000.04,VALID,0,VALID,90.266,VALID,0,VALID,23.7793,VALID,164,VALID,0.70625,
2009-08-27, 01:30:04,VALID,1000.06,VALID,0,VALID,90.0677,VALID,0,VALID,23.7988,VALID,164,VALID,0.616797,
2009-08-27, 01:31:04,VALID,1000.04,VALID,0,VALID,89.8922,VALID,0,VALID,23.8396,VALID,164,VALID,0.664063,
2009-08-27, 01:32:04,VALID,1000.04,VALID,0,VALID,89.648,VALID,0,VALID,23.8396,VALID,164,VALID,0.666406,
2009-08-27, 01:33:04,VALID,1000.06,VALID,0,VALID,89.5641,VALID,0,VALID,23.8378,VALID,165,VALID,0.672656,
2009-08-27, 01:34:04,VALID,1000.06,VALID,0,VALID,89.4191,VALID,0,VALID,23.8591,VALID,165,VALID,0.588672,
2009-08-27, 01:35:04,VALID,1000.09,VALID,0,VALID,89.2818,VALID,0,VALID,23.8573,VALID,165,VALID,0.394141,
2009-08-27, 01:36:04,VALID,1000.08,VALID,0,VALID,89.0758,VALID,0,VALID,23.8378,VALID,165,VALID,0.357422,
2009-08-27, 01:37:04,VALID,1000.1,VALID,0,VALID,89.0529,VALID,0,VALID,23.8591,VALID,165,VALID,0.267969,
2009-08-27, 01:38:04,VALID,1000.1,VALID,0,VALID,88.9309,VALID,0,VALID,23.8768,VALID,165,VALID,0.414844,
2009-08-27, 01:39:04,VALID,1000.12,VALID,0,VALID,88.824,VALID,0,VALID,23.8982,VALID,165,VALID,0.184766,
2009-08-27, 01:40:04,VALID,1000.09,VALID,0,VALID,88.9232,VALID,0,VALID,23.8982,VALID,165,VALID,0.00117188,
2009-08-27, 01:41:04,VALID,1000.13,VALID,0,VALID,88.9461,VALID,0,VALID,23.8768,VALID,165,VALID,0.220703,
2009-08-27, 01:42:04,VALID,1000.09,VALID,0,VALID,88.9156,VALID,0,VALID,23.8786,VALID,165,VALID,0.102344,
2009-08-27, 01:43:04,VALID,1000.11,VALID,0,VALID,88.9385,VALID,0,VALID,23.8591,VALID,165,VALID,0.0582031,
2009-08-27, 01:44:04,VALID,1000.11,VALID,0,VALID,88.969,VALID,0,VALID,23.8396,VALID,165,VALID,0.160547,
2009-08-27, 01:45:04,VALID,1000.14,VALID,0,VALID,89.1597,VALID,0,VALID,23.8183,VALID,165,VALID,0.150391,
2009-08-27, 01:46:04,VALID,1000.12,VALID,0,VALID,89.2132,VALID,0,VALID,23.8183,VALID,140,VALID,0.386719,
2009-08-27, 01:47:04,VALID,1000.13,VALID,0,VALID,89.2513,VALID,0,VALID,23.8201,VALID,140,VALID,0.253125,
2009-08-27, 01:48:04,VALID,1000.12,VALID,0,VALID,89.442,VALID,0,VALID,23.8183,VALID,135,VALID,0.475,
2009-08-27, 01:49:04,VALID,1000.13,VALID,0,VALID,89.5412,VALID,0,VALID,23.8183,VALID,135,VALID,0.352734,
2009-08-27, 01:50:04,VALID,1000.13,VALID,0,VALID,89.6404,VALID,0,VALID,23.8201,VALID,132,VALID,0.386719,
2009-08-27, 01:51:04,VALID,1000.11,VALID,0,VALID,89.7777,VALID,0,VALID,23.8201,VALID,91,VALID,0.480859,
2009-08-27, 01:52:04,VALID,1000.15,VALID,0,VALID,89.8846,VALID,0,VALID,23.8006,VALID,91,VALID,0.559766,
2009-08-27, 01:53:04,VALID,1000.12,VALID,0,VALID,90.0906,VALID,0,VALID,23.7597,VALID,44,VALID,0.417578,
2009-08-27, 01:54:04,VALID,1000.13,VALID,0,VALID,90.2279,VALID,0,VALID,23.7616,VALID,44,VALID,0.371484,
2009-08-27, 01:55:04,VALID,1000.13,VALID,0,VALID,90.3957,VALID,0,VALID,23.742,VALID,44,VALID,0.332812,
2009-08-27, 01:56:04,VALID,1000.17,VALID,0,VALID,90.5102,VALID,0,VALID,23.7225,VALID,44,VALID,0.321094,
2009-08-27, 01:57:04,VALID,1000.17,VALID,0,VALID,90.7162,VALID,0,VALID,23.7012,VALID,44,VALID,0.398828,
2009-08-27, 01:58:04,VALID,1000.19,VALID,0,VALID,90.8611,VALID,0,VALID,23.6817,VALID,43,VALID,0.358203,
2009-08-27, 01:59:04,VALID,1000.17,VALID,0,VALID,91.0366,VALID,0,VALID,23.6622,VALID,41,VALID,0.487891,
2009-08-27, 02:00:04,VALID,1000.14,VALID,0,VALID,91.1053,VALID,0,VALID,23.6622,VALID,40,VALID,0.488281,
2009-08-27, 02:01:04,VALID,1000.16,VALID,0,VALID,91.0671,VALID,0,VALID,23.6622,VALID,35,VALID,0.671094,
2009-08-27, 02:02:04,VALID,1000.13,VALID,0,VALID,91.0977,VALID,0,VALID,23.6214,VALID,34,VALID,0.600781,
2009-08-27, 02:03:04,VALID,1000.11,VALID,0,VALID,91.1816,VALID,0,VALID,23.6232,VALID,25,VALID,0.601563,
2009-08-27, 02:04:04,VALID,1000.11,VALID,0,VALID,91.1968,VALID,0,VALID,23.5823,VALID,19,VALID,0.435547,
2009-08-27, 02:05:04,VALID,1000.07,VALID,0,VALID,91.2731,VALID,0,VALID,23.5823,VALID,19,VALID,0.455078,
2009-08-27, 02:06:04,VALID,1000.06,VALID,0,VALID,91.2731,VALID,0.112286,VALID,23.5823,VALID,19,VALID,0.384375,
2009-08-27, 02:07:04,VALID,1000.04,VALID,0,VALID,91.2655,VALID,0.112286,VALID,23.5823,VALID,19,VALID,0,
2009-08-27, 02:08:04,VALID,1000.03,VALID,0,VALID,91.235,VALID,0.112286,VALID,23.5433,VALID,19,VALID,0,
2009-08-27, 02:09:04,VALID,1000.03,VALID,0,VALID,91.2426,VALID,0.112286,VALID,23.5433,VALID,19,VALID,0,
2009-08-27, 02:10:04,VALID,1000.03,VALID,0,VALID,91.2579,VALID,0,VALID,23.5451,VALID,19,VALID,0,
2009-08-27, 02:11:04,VALID,999.983,VALID,0,VALID,91.2731,VALID,0.112286,VALID,23.5043,VALID,19,VALID,0,
2009-08-27, 02:12:04,VALID,999.984,VALID,0,VALID,91.3342,VALID,0,VALID,23.4671,VALID,19,VALID,0,
2009-08-27, 02:13:04,VALID,999.982,VALID,0,VALID,91.3113,VALID,0,VALID,23.4884,VALID,19,VALID,0,
2009-08-27, 02:14:04,VALID,999.992,VALID,0,VALID,91.2503,VALID,0,VALID,23.428,VALID,19,VALID,0,
2009-08-27, 02:15:04,VALID,999.973,VALID,0,VALID,91.3342,VALID,0,VALID,23.4085,VALID,19,VALID,0,
2009-08-27, 02:16:04,VALID,999.99,VALID,0,VALID,91.3571,VALID,0,VALID,23.3695,VALID,19,VALID,0,
2009-08-27, 02:17:04,VALID,999.969,VALID,0,VALID,91.4486,VALID,0,VALID,23.3695,VALID,19,VALID,0,
2009-08-27, 02:18:04,VALID,999.96,VALID,0,VALID,91.4334,VALID,0,VALID,23.35,VALID,19,VALID,0,
2009-08-27, 02:19:04,VALID,999.957,VALID,0,VALID,91.4639,VALID,0,VALID,23.35,VALID,19,VALID,0,
2009-08-27, 02:20:04,VALID,999.973,VALID,0,VALID,91.38,VALID,0,VALID,23.35,VALID,19,VALID,0,
2009-08-27, 02:21:04,VALID,999.951,VALID,0,VALID,91.38,VALID,0,VALID,23.35,VALID,19,VALID,0,
2009-08-27, 02:22:04,VALID,999.967,VALID,0,VALID,91.3876,VALID,0,VALID,23.3518,VALID,19,VALID,0,
2009-08-27, 02:23:04,VALID,999.957,VALID,0,VALID,91.441,VALID,0,VALID,23.3518,VALID,19,VALID,0,
2009-08-27, 02:24:04,VALID,999.98,VALID,0,VALID,91.502,VALID,0,VALID,23.3305,VALID,19,VALID,0,
2009-08-27, 02:25:04,VALID,999.94,VALID,0,VALID,91.5783,VALID,0,VALID,23.3305,VALID,19,VALID,0,
2009-08-27, 02:26:04,VALID,999.944,VALID,0,VALID,91.4715,VALID,0,VALID,23.311,VALID,19,VALID,0,
2009-08-27, 02:27:04,VALID,999.949,VALID,0,VALID,91.5783,VALID,0,VALID,23.311,VALID,19,VALID,0,
2009-08-27, 02:28:04,VALID,999.975,VALID,0,VALID,91.5554,VALID,0,VALID,23.2915,VALID,19,VALID,0,
2009-08-27, 02:29:04,VALID,999.96,VALID,0,VALID,91.441,VALID,0,VALID,23.2719,VALID,19,VALID,0,
2009-08-27, 02:30:04,VALID,999.962,VALID,0,VALID,91.5402,VALID,0,VALID,23.2737,VALID,19,VALID,0,
2009-08-27, 02:31:04,VALID,999.937,VALID,0,VALID,91.7157,VALID,0,VALID,23.2542,VALID,19,VALID,0,
2009-08-27, 02:32:04,VALID,999.957,VALID,0,VALID,91.708,VALID,0,VALID,23.2542,VALID,19,VALID,0,
2009-08-27, 02:33:04,VALID,999.933,VALID,0,VALID,91.914,VALID,0,VALID,23.2524,VALID,19,VALID,0,
2009-08-27, 02:34:04,VALID,999.942,VALID,0,VALID,91.8835,VALID,0,VALID,23.2737,VALID,19,VALID,0,
2009-08-27, 02:35:04,VALID,999.937,VALID,0,VALID,91.9064,VALID,0,VALID,23.2524,VALID,19,VALID,0,
2009-08-27, 02:36:04,VALID,999.911,VALID,0,VALID,92.0285,VALID,0,VALID,23.2737,VALID,31,VALID,0.108203,
2009-08-27, 02:37:04,VALID,999.936,VALID,0,VALID,91.9217,VALID,0,VALID,23.2524,VALID,55,VALID,0.198047,
2009-08-27, 02:38:04,VALID,999.911,VALID,0,VALID,91.9751,VALID,0,VALID,23.2719,VALID,60,VALID,0.350781,
2009-08-27, 02:39:04,VALID,999.875,VALID,0,VALID,91.9369,VALID,0,VALID,23.2719,VALID,81,VALID,0.460156,
2009-08-27, 02:40:04,VALID,999.88,VALID,0,VALID,91.8911,VALID,0,VALID,23.2915,VALID,157,VALID,0.867578,
2009-08-27, 02:41:04,VALID,999.901,VALID,0,VALID,91.8454,VALID,0,VALID,23.311,VALID,157,VALID,0.591406,
2009-08-27, 02:42:04,VALID,999.888,VALID,0,VALID,91.7309,VALID,0,VALID,23.3713,VALID,163,VALID,0.935938,
2009-08-27, 02:43:04,VALID,999.9,VALID,0,VALID,91.4028,VALID,0,VALID,23.4103,VALID,165,VALID,0.816406,
2009-08-27, 02:44:04,VALID,999.912,VALID,0,VALID,91.0977,VALID,0,VALID,23.4688,VALID,173,VALID,0.96875,
2009-08-27, 02:45:04,VALID,999.95,VALID,0,VALID,90.7162,VALID,0,VALID,23.5274,VALID,180,VALID,1.24023,
2009-08-27, 02:46:04,VALID,999.959,VALID,0,VALID,90.3271,VALID,0,VALID,23.5841,VALID,179,VALID,1.20938,
2009-08-27, 02:47:04,VALID,999.978,VALID,0,VALID,89.7701,VALID,0,VALID,23.6622,VALID,169,VALID,1.04023,
2009-08-27, 02:48:04,VALID,999.964,VALID,0,VALID,89.32,VALID,0,VALID,23.7207,VALID,172,VALID,1.03984,
2009-08-27, 02:49:04,VALID,999.997,VALID,0,VALID,88.8469,VALID,0,VALID,23.7811,VALID,166,VALID,1.09258,
2009-08-27, 02:50:04,VALID,999.987,VALID,0,VALID,88.5723,VALID,0,VALID,23.8006,VALID,170,VALID,0.807422,
2009-08-27, 02:51:04,VALID,1000.02,VALID,0,VALID,88.2289,VALID,0,VALID,23.7988,VALID,172,VALID,0.803125,
2009-08-27, 02:52:04,VALID,1000.04,VALID,0,VALID,88.0611,VALID,0,VALID,23.7793,VALID,172,VALID,0.899609,
2009-08-27, 02:53:04,VALID,1000.01,VALID,0,VALID,87.9695,VALID,0,VALID,23.7988,VALID,171,VALID,0.639063,
2009-08-27, 02:54:04,VALID,1000.03,VALID,0,VALID,87.8322,VALID,0,VALID,23.8201,VALID,171,VALID,0.735547,
2009-08-27, 02:55:04,VALID,1000.03,VALID,0,VALID,87.7788,VALID,0,VALID,23.8183,VALID,176,VALID,0.907031,
2009-08-27, 02:56:04,VALID,1000.05,VALID,0,VALID,87.5194,VALID,0,VALID,23.8591,VALID,179,VALID,0.98125,
2009-08-27, 02:57:04,VALID,1000.04,VALID,0,VALID,87.26,VALID,0,VALID,23.8768,VALID,182,VALID,1.15039,
2009-08-27, 02:58:04,VALID,1000.05,VALID,0,VALID,87.2676,VALID,0,VALID,23.8963,VALID,182,VALID,1.07695,
2009-08-27, 02:59:04,VALID,1000.05,VALID,0,VALID,87.115,VALID,0,VALID,23.914,VALID,186,VALID,1.63164,
2009-08-27, 03:00:04,VALID,1000.02,VALID,0,VALID,86.497,VALID,0,VALID,24.0329,VALID,179,VALID,1.40625,
2009-08-27, 03:01:04,VALID,1000.05,VALID,0,VALID,85.9324,VALID,0.112286,VALID,24.0897,VALID,189,VALID,1.51094,
2009-08-27, 03:02:04,VALID,1000.03,VALID,0,VALID,85.5815,VALID,0,VALID,24.1696,VALID,176,VALID,1.48984,
2009-08-27, 03:03:04,VALID,1000.03,VALID,0,VALID,85.1618,VALID,0,VALID,24.2263,VALID,209,VALID,1.16641,
2009-08-27, 03:04:04,VALID,1000.03,VALID,0,VALID,84.5972,VALID,0,VALID,24.2848,VALID,200,VALID,1.19141,
2009-08-27, 03:05:04,VALID,1000.04,VALID,0,VALID,84.3455,VALID,0,VALID,24.3043,VALID,181,VALID,1.22812,
2009-08-27, 03:06:04,VALID,1000.05,VALID,0,VALID,84.3378,VALID,0,VALID,24.3043,VALID,189,VALID,1.00859,
2009-08-27, 03:07:04,VALID,1000.07,VALID,0,VALID,84.2463,VALID,0,VALID,24.3257,VALID,184,VALID,0.692969,
2009-08-27, 03:08:04,VALID,1000.06,VALID,0,VALID,84.6277,VALID,0.112286,VALID,24.2848,VALID,184,VALID,1.1918,
2009-08-27, 03:09:04,VALID,1000.06,VALID,0,VALID,84.8795,VALID,0,VALID,24.2866,VALID,188,VALID,1.07891,
2009-08-27, 03:10:04,VALID,1000.07,VALID,0,VALID,84.8872,VALID,0,VALID,24.2458,VALID,189,VALID,0.9875,
2009-08-27, 03:11:04,VALID,1000.06,VALID,0,VALID,84.7574,VALID,0,VALID,24.2653,VALID,194,VALID,1.18086,
2009-08-27, 03:12:04,VALID,1000.05,VALID,0,VALID,84.6506,VALID,0,VALID,24.2885,VALID,197,VALID,0.906641,
2009-08-27, 03:13:04,VALID,1000.07,VALID,0,VALID,84.5667,VALID,0,VALID,24.2885,VALID,187,VALID,0.855078,
2009-08-27, 03:14:04,VALID,1000.08,VALID,0,VALID,84.6659,VALID,0,VALID,24.269,VALID,194,VALID,0.544141,
2009-08-27, 03:15:04,VALID,1000.08,VALID,0,VALID,84.8032,VALID,0,VALID,24.1909,VALID,233,VALID,0.0824219,
2009-08-27, 03:16:04,VALID,1000.08,VALID,0,VALID,85.1389,VALID,0,VALID,24.072,VALID,223,VALID,0,
2009-08-27, 03:17:04,VALID,1000.06,VALID,0,VALID,85.3983,VALID,0,VALID,23.9762,VALID,223,VALID,0,
2009-08-27, 03:18:04,VALID,1000.06,VALID,0,VALID,86.0774,VALID,0,VALID,23.8591,VALID,187,VALID,0.432422,
2009-08-27, 03:19:04,VALID,1000.06,VALID,0,VALID,86.3749,VALID,0,VALID,23.7616,VALID,181,VALID,0.0792969,
2009-08-27, 03:20:04,VALID,1000.06,VALID,0,VALID,86.8022,VALID,0,VALID,23.664,VALID,85,VALID,0.437109,
2009-08-27, 03:21:04,VALID,1000.07,VALID,0,VALID,87.6262,VALID,0,VALID,23.5274,VALID,48,VALID,0.21875,
2009-08-27, 03:22:04,VALID,1000.06,VALID,0,VALID,87.9161,VALID,0,VALID,23.428,VALID,45,VALID,0.442187,
2009-08-27, 03:23:04,VALID,1000.05,VALID,0,VALID,88.3586,VALID,0,VALID,23.3323,VALID,45,VALID,0.607031,
2009-08-27, 03:24:04,VALID,1000.06,VALID,0,VALID,88.6562,VALID,0,VALID,23.2152,VALID,45,VALID,0.328516,
2009-08-27, 03:25:04,VALID,1000.1,VALID,0,VALID,89.0834,VALID,0,VALID,23.0964,VALID,45,VALID,0.23125,
2009-08-27, 03:26:04,VALID,1000.05,VALID,0,VALID,89.526,VALID,0,VALID,23.0396,VALID,45,VALID,0.0382813,
2009-08-27, 03:27:04,VALID,1000.1,VALID,0,VALID,89.8998,VALID,0,VALID,23.0006,VALID,45,VALID,0,
2009-08-27, 03:28:04,VALID,1000.12,VALID,0,VALID,90.1363,VALID,0,VALID,22.9793,VALID,45,VALID,0,
2009-08-27, 03:29:04,VALID,1000.13,VALID,0,VALID,90.2813,VALID,0,VALID,22.9811,VALID,45,VALID,0.23125,
2009-08-27, 03:30:04,VALID,1000.11,VALID,0,VALID,90.5178,VALID,0,VALID,22.9811,VALID,45,VALID,0.204688,
2009-08-27, 03:31:04,VALID,1000.16,VALID,0,VALID,90.6323,VALID,0,VALID,22.9615,VALID,45,VALID,0.0117188,
2009-08-27, 03:32:04,VALID,1000.17,VALID,0,VALID,90.762,VALID,0,VALID,22.9208,VALID,45,VALID,0,
2009-08-27, 03:33:04,VALID,1000.14,VALID,0,VALID,90.9909,VALID,0,VALID,22.942,VALID,45,VALID,0,
2009-08-27, 03:34:04,VALID,1000.15,VALID,0,VALID,91.0671,VALID,0,VALID,22.9013,VALID,45,VALID,0,
2009-08-27, 03:35:04,VALID,1000.15,VALID,0,VALID,91.235,VALID,0,VALID,22.9615,VALID,2,VALID,0.142578,
2009-08-27, 03:36:04,VALID,1000.16,VALID,0,VALID,91.3189,VALID,0,VALID,22.9403,VALID,352,VALID,0.177344,
2009-08-27, 03:37:04,VALID,1000.13,VALID,0,VALID,91.2655,VALID,0,VALID,22.9615,VALID,352,VALID,0.00585938,
2009-08-27, 03:38:04,VALID,1000.13,VALID,0,VALID,91.1892,VALID,0,VALID,22.942,VALID,352,VALID,0,
2009-08-27, 03:39:04,VALID,1000.14,VALID,0,VALID,90.9222,VALID,0,VALID,22.8818,VALID,352,VALID,0.259766,
2009-08-27, 03:40:04,VALID,1000.12,VALID,0,VALID,91.4486,VALID,0,VALID,22.8835,VALID,352,VALID,0.530469,
2009-08-27, 03:41:04,VALID,1000.16,VALID,0,VALID,91.6394,VALID,0,VALID,22.903,VALID,67,VALID,1.29297,
2009-08-27, 03:42:04,VALID,1000.13,VALID,0,VALID,91.6165,VALID,0,VALID,22.9403,VALID,55,VALID,1.52734,
2009-08-27, 03:43:04,VALID,1000.14,VALID,0,VALID,91.6088,VALID,0,VALID,22.8995,VALID,55,VALID,1.40586,
2009-08-27, 03:44:04,VALID,1000.16,VALID,0,VALID,91.6546,VALID,0,VALID,22.8605,VALID,53,VALID,1.27266,
2009-08-27, 03:45:04,VALID,1000.17,VALID,0,VALID,91.7538,VALID,0,VALID,22.8623,VALID,52,VALID,1.2,
2009-08-27, 03:46:04,VALID,1000.17,VALID,0,VALID,91.7157,VALID,0,VALID,22.8232,VALID,36,VALID,1.31562,
2009-08-27, 03:47:04,VALID,1000.18,VALID,0,VALID,91.8683,VALID,0,VALID,22.7842,VALID,34,VALID,1.46484,
2009-08-27, 03:48:04,VALID,1000.15,VALID,0,VALID,91.9445,VALID,0,VALID,22.724,VALID,32,VALID,1.45352,